This demonstration page uses our WeatherBlox Daily Observations layout. Learn more.

39.92423, -83.80882

Hourly Observations for December 13, 2019

Temp ( °F °C ) Dew Point ( °F °C ) Humidity (%) Winds ( mph kmh ) Pressure ( in mb ) Visibility ( mi km ) Precip ( " mm )
12:56 am 00:56 Clear 31 -0.6 26 -3.3 82 82 SE 8 13 30.2 1023 10 16.0934 0 0
1:56 am 01:56 Clear 32 0 27 -2.8 82 82 SSE 7 11 30.19 1022 10 16.0934 0 0
2:56 am 02:56 Clear 31 -0.6 26 -3.3 82 82 SSE 8 13 30.17 1022 10 16.0934 0 0
3:56 am 03:56 Clear 30 -1.1 26 -3.3 85 85 SSE 8 13 30.17 1022 10 16.0934 0 0
4:56 am 04:56 Clear 30 -1.1 27 -2.8 88 88 SSE 9 15 30.15 1021 10 16.0934 0 0
5:56 am 05:56 Clear 30 -1.1 27 -2.8 88 88 SSE 8 13 30.14 1021 10 16.0934 0 0
6:56 am 06:56 Mostly Cloudy 32 0 29 -1.7 88 88 SSE 8 13 30.13 1020 10 16.0934 0 0
7:56 am 07:56 Cloudy 34 1.1 32 0 92 92 SSE 8 13 30.12 1020 10 16.0934 0 0
8:56 am 08:56 Cloudy 36 2.2 34 1.1 93 93 S 7 11 30.13 1020 10 16.0934 0 0
9:56 am 09:56 Cloudy 38 3.3 36 2.2 93 93 S 6 9 30.12 1020 10 16.0934 0 0
10:56 am 10:56 Cloudy 39 3.9 38 3.3 96 96 S 6 9 30.09 1019 10 16.0934 0 0
11:56 am 11:56 Cloudy 41 5 39 3.9 93 93 SSE 10 17 30.06 1018 10 16.0934 0 0
12:56 pm 12:56 Mostly Cloudy 44 6.7 40 4.4 85 85 SSE 8 13 30.01 1016 10 16.0934 0 0
1:56 pm 13:56 Cloudy 46 7.8 39 3.9 77 77 SSE 6 9 29.98 1015 10 16.0934 0 0
2:56 pm 14:56 Cloudy 45 7.2 40 4.4 83 83 S 3 6 29.96 1015 10 16.0934 0 0
3:48 pm 15:48 Mostly Cloudy 45 7 39 4 81 81 SSE 6 9 29.94 1014 10 16.0934 0 0
3:56 pm 15:56 Partly Cloudy 44 6.7 40 4.4 85 85 SSE 5 7 29.95 1014 10 16.0934 0 0
4:56 pm 16:56 Mostly Cloudy 42 5.6 39 3.9 89 89 ESE 7 11 29.92 1013 10 16.0934 0 0
5:56 pm 17:56 Cloudy 41 5 38 3.3 89 89 E 6 9 29.9 1013 10 16.0934 0 0
6:56 pm 18:56 Cloudy 39 3.9 38 3.3 96 96 ENE 5 7 29.89 1012 10 16.0934 0 0
7:56 pm 19:56 Cloudy 39 3.9 38 3.3 96 96 NE 5 7 29.88 1012 10 16.0934 0 0
8:56 pm 20:56 Cloudy 39 3.9 38 3.3 96 96 NE 3 6 29.85 1011 10 16.0934 0 0
9:56 pm 21:56 Mostly Cloudy 37 2.8 36 2.2 96 96 ENE 6 9 29.81 1010 10 16.0934 0 0
10:56 pm 22:56 Cloudy 39 3.9 38 3.3 96 96 NNE 5 7 29.8 1009 10 16.0934 0 0
11:56 pm 23:56 Cloudy with Light Rain 38 3.3 38 3.3 100 100 NNE 5 7 29.79 1009 6 9.65604 0.001 0.001

Powered by AerisWeather